Powrót do katalogu

COSMOS 2499 DEB

LostPO
NORAD 57759·DEBRIS·🇷🇺 Russia

Wystrzelony May 23, 2014 z Plesetsk Cosmodrome

Loading…

Następne Przeloty (najbliższe 24 godziny)

TLE

NieaktualneSource: Space-Track

Epoka: Jun 15, 2026, 09:06 UTC

1 57759U 14028BR  26166.37953489  .00002364  00000-0  60786-2 0  9991
2 57759  82.3459 198.9977 0228137 229.7515 128.3454 13.08713187 69146

Śledź COSMOS 2499 DEB w czasie rzeczywistym z AllMySat

Download on the App Store